Location: �quirre
(50.4736°N, 2.2351°E)
Time: 16:58:10
(UTC+00:00)

Meteor 2-5 Rocket - Pass Details

Date: 07 August 2020
Orbit: 832 x 912 km, 81.2° (Epoch: 24 September)

Event Time Altitude Azimuth Distance (km) Brightness Sun altitude
Rises 01:59:50 0° 346° (NNW) 3,463 7.6 -18.0°
Reaches altitude 10° 02:02:18 10° 345° (NNW) 2,510 6.8 -17.7°
Maximum altitude 02:07:58 74° 261° (W) 885 3.6 -17.3°
Enters shadow 02:11:43 21° 180° (S) 1,784 4.9 -16.9°
